Theta_e
316 316 316 316 315 315 315 315 315 315 315 316 316 316 316 316 316 316 316 317 318 318 318 318 319 321 313 298 300 323 340 334 315 310 310 308 303 297 298 297 299 297 300 302 305 304 304
315 315 315 315 315 314 315 315 314 315 315 315 315 315 315 315 315 316 316 316 316 316 317 318 319 322 303 292 304 328 320 316 310 308 307 307 304 301 298 297 297 300 300 301 302 303 302
315 315 315 315 314 314 314 314 314 314 314 315 315 315 314 315 315 315 316 316 315 316 317 318 320 320 302 299 314 308 312 308 310 311 310 311 311 304 300 298 300 301 299 301 300 301 305
315 315 314 314 314 314 314 314 314 314 314 314 315 315 315 315 315 316 316 315 315 316 317 319 321 313 299 307 308 309 305 307 308 311 313 315 312 304 300 300 301 297 296 293 298 302 303
314 314 314 314 314 313 313 314 314 314 314 314 315 315 315 315 316 316 316 315 316 318 318 319 311 303 299 316 312 314 309 308 307 308 312 318 306 300 300 295 293 293 289 290 297 299 301
314 314 314 313 313 314 313 314 314 313 314 314 315 314 314 315 315 315 314 314 316 316 318 320 315 301 304 307 312 312 310 310 307 305 305 305 299 296 293 293 288 289 289 292 294 297 299
314 314 313 313 313 313 313 313 314 314 314 314 314 314 314 314 315 314 310 305 300 299 304 300 301 304 307 311 315 312 310 308 305 302 295 299 295 293 294 294 295 294 292 293 296 300 298
313 313 313 313 313 313 313 314 314 314 314 314 314 314 314 314 314 314 308 303 304 305 296 303 304 306 310 311 306 312 310 302 300 295 297 295 293 297 299 298 296 295 293 293 297 300 297
313 313 312 312 312 313 313 313 313 314 314 313 313 313 314 314 313 309 306 308 310 304 294 300 302 302 303 307 307 308 306 302 298 295 294 291 297 301 299 297 296 293 292 293 295 299 299
312 312 312 312 312 312 312 313 313 313 313 313 313 313 313 312 309 305 306 311 312 305 292 300 300 303 305 308 305 313 310 305 300 296 296 294 300 300 296 297 296 291 297 298 297 294 290
311 311 311 312 312 312 312 312 313 313 313 313 312 313 313 312 303 303 308 309 310 303 285 302 300 305 305 301 303 304 309 304 299 299 297 295 297 297 296 298 299 296 301 298 298 293 290
312 311 311 312 312 312 311 312 312 312 312 312 312 312 311 308 301 305 308 308 304 291 286 296 300 300 299 300 302 304 304 305 303 299 298 297 300 299 298 302 302 303 299 296 295 291 286
311 311 311 311 311 311 311 311 312 312 312 311 311 311 309 309 304 307 307 302 290 285 298 296 296 298 296 296 299 300 298 296 294 290 291 296 297 299 302 297 298 296 291 287 287 286 286
310 311 311 311 311 311 311 311 312 311 311 311 310 308 308 311 308 307 304 295 286 295 294 300 298 297 295 296 296 298 296 294 298 295 290 289 289 296 300 297 295 293 291 286 282 286 288
310 310 310 310 311 311 311 311 311 311 310 309 308 306 308 310 311 305 298 289 289 294 299 297 296 292 292 296 296 295 293 295 299 300 293 290 290 301 301 300 298 292 288 294 288 288 288
309 310 310 310 310 311 311 311 311 312 310 309 302 304 307 312 308 302 294 292 294 301 301 299 291 293 289 292 292 292 292 297 297 301 300 297 291 300 301 300 298 296 297 289 286 283 282
309 309 309 311 310 311 311 311 311 311 309 308 304 301 309 309 307 298 289 291 297 303 302 297 294 292 293 291 292 291 293 297 299 298 298 299 294 295 299 294 294 292 291 290 290 288 285
309 309 309 310 310 311 311 311 311 310 308 305 299 297 309 306 294 291 291 296 301 301 302 299 298 296 293 293 291 291 292 296 301 302 295 300 295 291 296 303 304 296 294 292 288 286 287
308 309 309 310 310 310 311 310 310 310 308 303 296 297 308 303 289 289 294 299 300 299 299 298 296 297 296 292 288 293 295 300 302 300 300 301 292 288 290 296 295 294 295 293 291 289 289
308 308 309 309 309 310 310 310 311 310 309 301 296 294 298 299 296 293 292 293 295 302 300 299 297 297 295 292 292 290 294 300 302 301 310 304 293 292 288 292 296 295 298 298 293 288 290
308 309 309 309 309 310 310 311 311 310 309 302 297 294 296 290 293 293 292 294 294 295 298 299 295 296 294 290 292 292 295 298 301 304 302 298 290 293 296 298 298 296 296 298 296 297 292
308 308 309 308 308 309 310 311 311 309 307 299 295 295 297 293 294 293 292 291 294 296 295 294 293 297 296 291 293 292 295 294 295 298 298 297 290 294 292 297 297 295 298 299 300 298 296
308 309 309 307 307 308 310 310 311 310 305 297 300 300 298 294 292 290 291 293 295 296 298 299 298 295 294 296 300 301 301 301 299 297 295 294 294 290 287 295 295 291 298 300 300 299 300
308 308 307 307 307 307 309 310 311 312 306 298 300 299 294 289 292 292 296 296 296 296 294 298 299 295 300 303 302 302 300 300 299 299 300 294 292 293 288 291 285 297 304 304 302 303 309
307 308 307 307 307 307 308 310 311 312 309 299 299 300 297 290 294 294 295 294 295 295 295 297 300 301 303 299 294 291 291 293 297 300 300 299 294 292 288 289 295 304 309 305 306 304 313
307 308 307 307 307 307 307 309 310 312 311 301 298 302 299 295 290 298 294 295 291 291 293 297 302 303 301 297 292 285 286 292 293 296 302 299 299 293 292 289 289 299 310 315 312 299 315
307 307 307 307 307 308 307 309 310 313 312 302 299 308 303 298 298 295 292 293 297 295 291 294 298 297 299 292 289 288 290 298 291 288 289 292 294 289 290 288 295 307 313 314 300 300 316
307 307 307 307 307 308 307 308 311 313 313 304 299 307 306 300 298 301 301 297 295 294 292 297 297 297 294 292 290 291 295 297 294 295 294 295 293 290 292 290 288 311 311 304 307 312 318
307 307 307 307 307 307 307 308 311 312 313 309 300 303 306 303 298 300 303 304 302 302 299 300 299 299 300 295 296 296 295 298 296 290 301 293 297 294 298 299 307 312 310 315 319 318 320
Wind_Speed
13 14 14 14 15 16 16 17 17 17 17 18 19 19 20 21 20 20 20 20 19 18 18 18 18 19 8 5 7 2 7 5 5 3 4 4 3 2 1 3 1 3 3 5 10 11 4
13 13 13 13 15 16 17 18 18 17 18 18 19 20 21 20 21 20 20 20 19 19 18 16 16 17 2 2 2 4 6 4 0 2 2 3 3 3 2 2 4 3 5 8 7 10 1
12 12 12 14 15 17 18 18 19 19 19 19 20 21 22 22 21 21 19 20 19 17 17 13 12 5 1 12 5 4 4 3 1 1 1 3 2 2 2 4 2 3 6 9 4 4 5
11 12 13 14 16 17 17 18 18 18 20 20 20 21 23 23 23 23 21 22 20 19 13 9 7 1 8 4 2 7 1 6 5 6 4 6 3 2 3 2 8 4 5 4 4 6 3
12 12 14 15 17 17 18 19 19 19 19 21 21 22 21 24 24 24 24 23 20 6 4 4 2 2 10 8 3 5 6 4 3 2 4 4 1 3 5 5 6 8 3 3 11 3 1
12 13 15 17 18 17 19 20 19 20 20 21 21 23 24 23 24 24 25 19 7 3 2 4 2 2 5 4 6 3 5 6 4 3 5 5 6 3 4 4 6 5 3 4 6 3 5
13 14 16 18 18 19 19 20 20 20 21 21 22 22 22 24 24 22 12 3 7 4 2 3 1 4 4 9 5 1 4 7 3 5 2 4 3 8 6 3 2 0 2 6 7 7 6
13 15 17 18 19 20 20 21 21 22 21 22 22 22 24 24 24 19 3 7 3 7 10 5 8 7 9 1 5 4 3 6 4 4 3 5 7 4 4 2 3 3 4 8 10 5 3
13 15 17 18 18 18 20 21 21 22 22 22 22 22 23 24 22 5 4 5 2 4 1 8 4 3 4 6 3 6 3 3 3 3 3 6 7 5 4 4 4 4 6 3 9 8 6
14 16 16 17 16 18 21 22 22 22 22 22 22 21 22 28 6 5 5 10 9 2 5 5 5 5 3 1 3 6 4 3 1 8 8 5 6 7 4 6 6 7 6 7 7 3 5
14 15 16 16 17 19 20 22 23 23 23 23 23 22 18 11 2 2 5 9 8 4 6 5 3 1 1 2 6 3 3 4 4 4 7 9 3 3 5 11 6 11 7 8 7 5 2
15 15 16 16 18 19 20 21 23 24 24 25 24 22 18 1 1 6 7 8 4 5 3 7 4 7 5 1 4 8 3 4 3 2 1 8 4 4 7 5 5 7 5 6 3 4 4
14 15 17 17 17 19 20 21 22 23 24 25 25 22 8 0 4 6 6 4 6 7 6 7 5 6 2 7 8 8 6 3 2 2 6 5 8 4 5 6 3 4 5 4 4 2 8
14 15 16 17 18 19 20 21 23 24 24 26 27 16 3 4 4 6 4 6 10 2 4 5 6 7 6 11 8 10 7 7 8 3 1 3 9 6 2 9 10 8 10 7 6 3 5
14 15 16 17 17 18 19 21 22 24 26 27 18 5 4 4 4 3 6 8 2 3 6 5 4 6 6 6 5 8 7 3 5 11 5 5 6 10 9 5 8 4 4 9 7 1 1
13 14 15 16 17 18 19 21 22 24 26 22 3 4 5 7 4 6 7 4 4 5 6 4 3 3 5 6 7 7 4 2 2 13 10 4 8 6 7 5 3 6 6 2 2 5 6
12 13 14 15 16 17 19 20 22 24 27 14 4 4 5 8 4 7 5 1 3 6 7 5 4 3 5 4 2 2 6 5 11 9 7 4 4 7 5 5 7 4 3 2 3 6 8
11 13 14 15 16 17 18 19 21 22 25 9 3 3 5 5 6 2 3 4 5 6 7 5 4 4 2 3 2 2 6 3 16 12 8 2 3 5 12 15 14 10 13 9 6 7 3
11 12 13 13 14 16 17 19 19 18 15 4 3 3 5 5 4 4 5 5 4 6 4 4 3 4 2 1 4 4 3 5 9 7 4 6 4 6 10 10 3 4 6 7 4 5 8
11 12 13 13 13 14 16 17 17 16 13 3 2 4 6 6 2 4 4 3 5 5 1 4 2 3 4 2 5 5 8 6 11 13 12 4 6 10 14 10 12 10 20 14 9 6 6
11 12 13 13 14 15 16 17 17 14 12 2 3 1 2 3 3 3 0 2 2 5 4 6 5 5 4 4 6 8 5 10 9 14 7 8 8 9 20 22 18 25 20 25 17 21 10
10 11 11 12 13 14 15 16 18 12 10 4 3 3 4 1 3 3 2 1 3 3 2 4 3 6 5 6 9 17 14 4 9 6 4 2 8 13 18 21 18 24 23 27 22 20 10
9 10 9 10 11 13 14 16 17 13 7 2 2 2 4 3 2 2 1 3 4 6 5 2 5 11 13 16 12 10 12 16 18 16 15 7 8 4 19 21 12 18 26 27 24 8 11
8 9 9 10 10 12 13 14 16 13 4 1 1 2 3 3 0 1 5 6 4 3 5 12 8 6 6 11 15 12 12 18 19 23 17 12 7 5 11 6 15 16 15 22 17 12 7
8 9 9 9 10 11 12 12 13 14 5 2 2 2 2 3 1 7 5 3 6 6 5 9 10 6 9 7 4 6 5 6 8 7 5 16 9 5 6 4 11 4 5 8 9 9 5
8 9 9 10 10 11 11 12 13 13 4 3 2 1 0 1 4 4 2 4 5 5 5 4 8 9 2 3 2 3 4 4 5 11 17 11 12 11 4 3 6 7 4 4 3 5 7
8 8 9 10 10 12 12 13 12 11 2 3 2 2 2 2 4 2 3 2 3 1 4 6 7 7 2 2 3 5 6 3 4 6 6 6 5 11 6 5 13 6 4 2 6 9 16
7 8 8 9 10 11 12 12 12 10 4 4 4 3 2 3 6 7 6 8 4 3 3 5 7 1 3 3 2 4 3 4 3 7 2 7 5 5 5 6 12 3 4 5 4 3 14
8 8 8 8 9 11 12 12 12 11 6 4 2 3 1 3 6 4 10 15 15 18 8 3 4 2 3 2 3 4 6 5 2 4 6 3 1 4 4 7 5 8 6 7 4 3 6
Wind_Direction
20 16 15 9 7 6 5 2 355 352 346 342 340 338 335 332 331 327 323 318 313 312 315 322 325 323 348 7 254 34 106 93 104 133 133 126 91 108 144 176 263 249 301 305 279 288 219
20 11 7 5 10 4 2 358 354 349 342 339 338 335 334 331 327 324 316 308 307 308 310 320 321 318 341 296 310 111 113 86 263 158 107 126 149 203 236 245 157 237 272 280 288 290 151
13 4 2 7 10 5 1 355 351 346 343 338 335 332 331 330 325 319 311 301 300 300 302 310 306 305 12 233 93 12 323 167 217 295 164 219 176 72 163 300 232 269 330 334 307 318 356
8 4 7 8 9 2 355 353 351 346 341 338 334 329 329 329 324 318 313 309 306 299 292 281 269 260 250 253 35 311 139 290 263 232 245 253 199 231 152 331 7 15 52 359 268 327 198
11 359 11 10 8 358 353 352 347 345 344 340 333 327 326 327 321 322 319 314 309 330 176 152 125 114 271 308 302 238 150 240 342 291 246 277 58 67 20 76 6 357 224 220 311 202 293
7 2 10 12 5 356 352 349 345 344 344 341 334 330 328 329 325 324 318 311 316 4 136 190 240 337 311 336 296 281 203 164 243 9 6 43 47 59 39 86 218 249 249 263 252 307 14
3 5 10 10 2 356 348 345 343 342 341 340 336 331 328 324 323 326 337 34 14 343 39 245 212 272 265 313 329 303 182 134 135 73 126 349 79 225 231 196 170 226 255 271 276 283 325
1 5 11 5 359 351 345 343 341 340 337 336 335 333 331 327 327 325 348 72 87 249 307 250 252 253 260 198 304 310 105 127 147 170 131 12 248 236 224 215 235 249 287 287 284 273 166
0 7 7 359 353 346 343 340 338 337 336 335 333 335 333 330 322 17 334 98 325 301 277 304 221 240 230 144 218 283 129 106 138 166 158 168 234 62 186 273 269 254 229 234 245 325 246
3 6 0 352 347 344 343 340 339 337 336 334 333 336 337 329 58 330 323 332 352 305 48 328 4 333 41 246 279 221 186 126 61 199 160 222 264 230 237 248 168 271 213 243 273 15 266
4 2 355 348 346 345 341 339 338 339 337 334 332 334 340 341 215 356 273 327 315 69 69 332 46 163 160 149 322 12 224 88 205 177 106 245 290 267 228 235 161 243 259 228 249 227 282
1 357 353 348 346 344 341 339 339 338 336 332 330 331 338 130 175 244 311 316 66 44 67 355 10 351 5 315 306 322 9 71 154 160 128 236 245 204 215 263 165 276 312 286 78 135 238
359 355 351 347 345 342 340 339 338 338 335 331 327 326 325 326 280 336 324 46 41 70 325 356 325 346 31 339 19 -0 347 18 194 142 257 281 250 228 195 294 345 192 75 310 314 181 224
358 354 350 347 345 342 341 340 339 338 336 333 325 322 231 226 293 328 24 58 68 348 356 357 326 346 58 22 2 355 11 13 3 4 46 242 313 180 190 178 210 192 163 169 212 224 267
355 352 348 347 343 342 342 341 341 340 338 337 324 336 327 281 307 56 57 54 129 9 311 337 350 39 2 6 27 11 359 349 45 29 24 339 282 332 316 241 144 280 174 196 224 302 293
350 350 347 345 343 344 344 342 343 343 339 340 8 345 291 315 3 50 68 122 100 17 328 18 66 57 11 348 30 23 320 332 31 43 356 324 302 263 291 283 222 192 195 277 354 195 237
346 347 347 344 343 344 345 345 346 346 341 335 32 35 274 332 46 43 91 62 44 19 19 39 16 16 41 20 332 248 271 323 26 347 343 342 198 296 320 240 223 295 237 203 169 160 203
342 344 344 344 344 346 347 346 348 351 344 31 10 39 311 10 51 28 57 336 339 358 8 15 106 71 82 6 289 265 235 327 8 356 334 268 255 254 255 285 277 256 243 187 170 261 238
337 338 340 343 343 345 347 344 347 353 15 334 36 279 315 64 77 16 324 341 33 19 344 6 24 62 100 312 316 256 309 342 334 5 348 337 288 318 310 310 46 228 219 177 159 111 217
336 336 339 343 345 345 343 342 347 346 353 64 42 19 334 36 47 94 23 320 347 327 65 22 303 56 19 289 235 278 290 297 310 278 246 165 224 218 251 261 303 294 295 294 210 172 216
333 334 338 342 344 346 343 343 341 340 342 82 24 3 181 331 0 356 314 307 319 357 24 23 353 67 22 287 291 254 275 306 282 272 266 184 223 229 259 262 264 271 272 278 267 246 183
327 329 333 339 343 344 341 342 339 347 349 66 75 46 354 310 322 26 358 358 4 7 358 296 204 347 320 247 249 282 284 283 266 279 221 202 263 265 255 264 249 256 254 265 260 261 240
321 327 333 338 342 343 343 344 342 353 41 35 320 335 106 288 351 65 210 353 327 330 281 172 350 317 288 269 268 267 265 270 255 250 253 228 244 268 269 260 274 263 235 245 244 206 193
314 321 327 334 339 341 343 346 343 348 97 130 302 59 73 286 77 234 333 312 316 319 273 294 287 256 264 327 308 271 252 247 248 254 227 234 195 217 268 271 239 242 215 217 220 232 198
308 313 319 327 332 335 340 343 341 341 145 107 315 38 22 283 263 293 305 295 314 287 259 271 287 223 285 293 281 314 304 315 265 244 261 219 201 231 248 245 290 209 146 158 165 233 212
301 307 315 322 327 329 334 341 340 333 156 96 257 200 251 9 260 111 299 246 286 295 318 256 301 290 293 234 203 243 254 271 301 333 322 177 221 205 239 309 267 201 151 61 185 274 175
293 302 309 318 325 327 332 339 340 329 202 117 275 227 283 264 270 132 202 185 259 349 284 295 334 317 344 316 255 228 253 263 301 316 332 265 188 226 253 253 273 252 276 252 142 238 168
287 296 304 314 320 324 328 335 334 334 332 123 261 235 233 250 272 235 243 254 272 163 234 313 319 315 344 325 318 312 344 311 220 207 265 286 208 198 184 202 258 198 271 211 282 258 171
279 288 296 308 316 320 325 331 334 334 332 150 281 297 213 236 257 219 235 238 230 240 250 233 255 343 257 297 329 328 286 255 272 273 242 352 52 285 271 231 289 315 281 271 295 191 125